Weather in Novaya Zarya

Russia / Zabaykalsky Krai     50°21′44″N   115°33′10″E
temp.,
°C
wind,
m/s
gust,
m/s
humid.,
%
clouds,
%
prec.,
mm/h
press.,
hPa
HPBL,
m
17 june, thu
thu1700:00+9nw91681100 0.8 1000788
03:00+8nw101688100 4.1 999565
06:00+8wnw111788100 3.3 997721
09:00+11nw111576100 3.8 9941075
12:00+15nw131858100 0.2 9921803
15:00+15n111961100 0.9 9912074
18:00+15nnw112056100 0.7 9921847
21:00+14nw71361100 0.8 992471
18 june, fri
fri1800:00+14nnw81564100 0.8 9921014
03:00+13nw111870100 1.9 9911442
06:00+12nnw111673100 0.7 9911371
09:00+11nw101478100 1.1 9921068
12:00+12nw71179100 0.2 994964
15:00+13nw81071100 0.3 995918
18:00+15nnw796475 0.2 9961245
21:00+13nw5975100 0.3 997333
19 june, sat
sat1900:00+10nw510889 0.0 998268
03:00+10nw5987100 0.0 998259
06:00+10nw588596 0.1 998303
09:00+13nw6773100 0.6 998558
12:00+14nw5566100 0.3 999814
15:00+17nnw5652100 1.0 9981714
18:00+16n565767 0.6 9991003
21:00+14n3466100 0.6 100073
20 june, sun
sun2000:00+12nnw4780100 0.0 1001150
03:00+11n3590100 0.2 1002116
06:00+12nnw478694 0.1 1004240
09:00+14n677681 0.1 1005554
12:00+17ne4563100 0.8 10051166
15:00+19ne5652100 1.4 10051608
18:00+19e2457100 0.2 1006310
21:00+17ese23671 0.3 100722
21 june, mon
mon2100:00+13ne11845 0.0 100911
03:00+13ne22854 0.0 100911
06:00+13e22875 0.0 101112
09:00+17se22675 0.0 1011601
12:00+20sse335324 0.1 10111300
15:00+22se344418 0.1 10101682
18:00+22se444617 0.0 10101119
21:00+19se226035 0.0 101123